Regional Weather Roundup
Issued by NWS

Home | Current Version | Previous Version | Graphics & Text | Print | Product List | Glossary On
Versions: 1 2 3 4 5 6 7 8 9 10 11 12 13 14 15 16 17 18 19 20 21 22 23 24 25 26 27 28 29 30 31 32 33 34 35 36 37 38 39 40 41 42 43 44 45 46 47 48 49 50
586
ASUS43 KMKX 260311
RWRWI

WISCONSIN REGIONAL WEATHER ROUNDUP
NATIONAL WEATHER SERVICE MILWAUKEE/SULLIVAN WI
1000 PM CDT SUN JUN 25 2017

NOTE: "FAIR" INDICATES FEW OR NO CLOUDS BELOW 12,000 FEET WITH NO
SIGNIFICANT WEATHER AND/OR OBSTRUCTIONS TO VISIBILITY.

WIZ001-002-006>008-014>016-023>028-260400-
NORTHWEST WISCONSIN

CITY           SKY/WX    TMP DP  RH WIND       PRES   REMARKS
SUPERIOR ARPT  NOT AVBL
ASHLAND        CLOUDY    52  46  80 NW12      30.08R
HAYWARD        CLEAR     50  44  80 CALM      30.10R
SIREN          MOCLDY    48  44  85 CALM      30.13R
CUMBERLAND     CLEAR     50  45  81 W5        30.12R
RICE LAKE      CLEAR     51  48  89 CALM      30.13R
CHETEK         CLEAR     50  47  92 CALM      30.11R
LADYSMITH      MOCLDY    53  48  86 W7        30.11S
EAU CLAIRE     CLOUDY    51  49  92 CALM      30.11R
MENOMONIE      MOCLDY    57  49  76 CALM      30.12R
NEW RICHMOND   CLEAR     53  45  73 CALM      30.13R
OSCEOLA        PTCLDY    57  44  62 CALM      30.15R
$$

WIZ003>005-009-010-017-018-260400-
NORTH CENTRAL WISCONSIN

CITY           SKY/WX    TMP DP  RH WIND       PRES   REMARKS
MANITOWISH WTR PTCLDY    46  46 100 W3        30.05S
ARBOR VITAE    CLEAR     49  47  93 NW3       30.05S
WOODRUFF       CLEAR     49  47  93 NW3       30.05S
RHINELANDER    PTCLDY    47  47 100 W6        30.06S
EAGLE RIVER    CLOUDY    49  48  97 CALM      30.04S
LAND O LAKES   CLOUDY    49  47  93 W6        30.05S
PHILLIPS       CLEAR     48  47  94 CALM      30.07S
TOMAHAWK       NOT AVBL
MEDFORD        PTCLDY    49  47  93 W5        30.08S
MERRILL        MOCLDY    52  48  87 CALM      30.07S
$$

WIZ029-030-035-036-043>047-260400-
CENTRAL WISCONSIN

CITY           SKY/WX    TMP DP  RH WIND       PRES   REMARKS
WAUSAU         CLOUDY    54  48  80 W8        30.06R
MOSINEE        CLOUDY    54  50  87 W5        30.08R
MARSHFIELD     MOCLDY    51  46  83 W6        30.09R
STEVENS POINT  PTCLDY    53  51  93 W3        30.08R
WAUPACA        CLEAR     55  53  92 W6        30.07R
WAUTOMA        PTCLDY    54  52  93 SW5       30.09R
WISC RAPIDS    CLOUDY    53  48  83 W7        30.10R
CAMP DOUGLAS   CLEAR     50  50  99 W6        30.11R
$$

WIZ011>013-019>022-031-037>040-048>050-260400-
NORTHEAST WISCONSIN

CITY           SKY/WX    TMP DP  RH WIND       PRES   REMARKS
ANTIGO         CLEAR     49  47  91 NW7       30.06R
SHAWANO        CLEAR     56  50  79 W8        30.04R
OCONTO         CLOUDY    55  52  89 W8        30.01S
STURGEON BAY     N/A     58  53  84 W10         N/A
GREEN BAY      PTCLDY    57  54  89 W7        30.04R
MANITOWOC      PTCLDY    57  52  83 W7        30.04R
APPLETON       MOCLDY    55  52  88 W10       30.04S
CLINTONVILLE   CLEAR     55  46  71 NW7       30.05S
OSHKOSH        PTCLDY    57  53  86 W7        30.06R
$$

WIZ032>034-041-042-053>061-260400-
SOUTHWEST WISCONSIN

CITY           SKY/WX    TMP DP  RH WIND       PRES   REMARKS
LA CROSSE      PTCLDY    66  47  50 W8        30.10S
SPARTA         MOCLDY    52  50  92 N5        30.12R
VIROQUA        CLEAR     55  47  76 W5        30.12R
BOSCOBEL       PTCLDY    55  50  83 SW3       30.12S
PRAIRIE DU CHI CLEAR     56  48  75 CALM      30.13R
PLATTEVILLE    CLEAR     57  49  74 W6        30.14R
$$

WIZ056-057-062-063-064-067-068-260400-
SOUTH CENTRAL WISCONSIN

CITY           SKY/WX    TMP DP  RH WIND       PRES   REMARKS
REEDSBURG      PTCLDY    53  53 100 CALM      30.10S
BARABOO/DELLS  MOCLDY    52  51  93 CALM      30.10S
LONE ROCK      CLEAR     57  48  72 CALM      30.11R
MINERAL POINT  CLEAR     55  52  88 CALM      30.13R
MADISON        MOCLDY    56  53  90 SW3       30.10S
MIDDLETON      PTCLDY    56  55  98 CALM      30.11S
WATERTOWN      NOT AVBL
MONROE         CLEAR     57  48  72 W8        30.12S
JANESVILLE     PTCLDY    59  50  72 W3        30.11R
$$

WIZ051-052-058>065-066-070>072-260400-
SOUTHEAST WISCONSIN

CITY           SKY/WX    TMP DP  RH WIND       PRES   REMARKS
MILWAUKEE      CLOUDY    59  54  83 W10       30.09R
WAUKESHA       NOT AVBL
MILWAUKEE/TIMM CLOUDY    55  50  82 W9        30.09R
RACINE         CLOUDY    57  53  86 W7        30.10S
KENOSHA        MOCLDY    58  51  78 W7        30.10R
FOND DU LAC    MOCLDY    57  51  80 SW6       30.07R
SHEBOYGAN      MOCLDY    56  55  97 W8        30.05R
WEST BEND      MOCLDY    55  52  88 W8        30.08R
JUNEAU         CLEAR     53  52  94 W5        30.10S
$$

LSZ147-162-260400-
LAKE SUPERIOR

STATION/POSITION TIME  TEMP    WIND        PRES    WAVE
                       AIR SEA DIR/SP/G            HT/PER
                 (UTC) (F)     (DEG/KT/KT) (MB)    (FT/S)
W MID LAKE BUOY  0250   43 39  320/ 10/ 12 1017.3S   0
DEVILS ISLAND    0300   49     330/ 14/ 16 1018.6R
SAXON HARBOR     0240   55     290/ 11/ 16 1017.3S
$$

LMZ867-665-643>646-260400-
LAKE MICHIGAN

STATION/POSITION TIME  TEMP    WIND        PRES    WAVE
                       AIR SEA DIR/SP/G            HT/PER
                 (UTC) (F)     (DEG/KT/KT) (MB)    (FT/S)
CHAMBERS ISLAND  0240   57     300/  7/ 11 1015.2R
S GREEN BAY BUOY 0300   59     290/ 16/ 17 1015.9
N MID LAKE BUOY  0250   58 57  320/ 12/ 14 1015.4F   2/ 5
NORTHPORT PIER   0240   59     300/  8/ 13 1015.2R
KEWAUNEE LAKESHO 0242   57     280/  6/  9 1015.8R
SHEBOYGAN LAKESH 0300   58     270/  8/ 10 1017.2R
PORT WASHINGTON  0240   60     270/  7/ 11 1018.6S
ATWATER BUOY     0209   59 57  260/ 14/ 16 1018.1R
MILWAUKEE LAKESH 0250   59     280/  9/ 14   N/A
S MID LAKE BUOY  0150   63 62  310/ 14/ 16 1017.7F   2/ 4
KENOSHA   LAKESH 0300   61     280/  7/ 11 1018.6
$$

TC  - TEMPERATURE IN CELSIUS
VSB - VISIBILITY IN STATUTE MILES
WCI - WIND CHILL INDEX
HX  - HEAT INDEX





USA.gov is the U.S. government's official web portal to all federal, state and local government web resources and services.